TIME,DELAY(SENSOR),PRES,OXYGEN,RAWTEMP,T(OPTODE),TCPHASE,FLUOR,BETA(BETA700),BETA(BETA412),BETA(BETA440),CDOM,C(CSC),ED(ED412.40),ED(ED444.00),ED(ED489.70),ED(ED554.30),LU(LU411.80),LU(LU443.40),LU(LU489.60),LU(LU554.10),COMP,TILTX,TILTY,CHECK
1368849372,5810,809.4699707031250000,40.8531303405761700,655.1594848632812000,4.7871990203857420,54.8152885437011700,53,101,89,80,80,14933,2147754185,2147424667,2148009563,2147874377,2147638061,2147057472,2148255387,2147199643,1840,4,13,6138
1368852968,5809,849.7899780273438000,45.6895103454589840,660.4943237304688000,4.6117000579833980,54.1644783020019500,53,100,83,81,79,14936,2147755254,2147424896,2148009536,2147876900,2147636580,2147058413,2148259538,2147199780,352,4,13,63089
1368856568,5809,863.9699707031250000,45.5011787414550800,660.3380737304688000,4.6168398857116700,54.1865005493164060,52,99,88,79,80,14933,2147755227,2147425179,2148007369,2147877522,2147635428,2147068416,2148255524,2147198098,1099,4,13,20613
1368860168,5810,893.6699829101562000,47.0679512023925800,662.4807739257812000,4.5462651252746580,53.9908409118652340,52,103,82,79,80,14935,2147754139,2147422290,2148009289,2147874614,2147639277,2147063734,2148258980,2147199625,267,4,13,5252
1368863768,5806,887.8499755859375000,47.2828102111816400,663.3057250976562000,4.5190811157226560,53.9697113037109400,52,100,85,80,80,14930,2147752713,2147422692,2148006912,2147876681,2147640228,2147061860,2148256146,2147195026,3416,4,13,60088
1368867368,5809,894.1500244140625000,47.2790184020996100,663.3729248046875000,4.5168690681457520,53.9677009582519500,52,100,86,79,80,14918,2147754898,2147424512,2148007606,2147875556,2147638793,2147055634,2148257792,2147198747,787,4,13,15863
1368870968,5809,920.3099975585938000,49.0743598937988300,666.2343750000000000,4.4225101470947270,53.7542304992675800,52,98,90,78,80,14928,2147753965,2147423268,2148007469,2147875638,2147641974,2147062162,2148257947,2147199634,3385,4,13,51224
1368874568,5808,914.6900024414062000,47.8871192932128900,667.0316772460938000,4.3962020874023440,53.9271697998046900,53,100,89,79,80,14930,2147753956,2147424374,2148011062,2147875181,2147640146,2147060096,2148256850,2147202505,816,4,13,44371
1368878168,5808,919.6900024414062000,49.6678810119628900,668.0233764648438000,4.3634681701660160,53.6941108703613300,53,101,86,79,80,14928,2147753014,2147424758,2148008082,2147875008,2147641417,2147055387,2148257654,2147200054,3411,4,14,999
1368881768,5812,946.2600097656250000,48.7569389343261700,670.3975830078125000,4.2850608825683590,53.8461799621582000,53,97,88,79,80,14927,2147753170,2147424109,2148009106,2147875245,2147639899,2147054656,2148256457,2147197010,3247,4,13,7301
1368885368,5812,945.1799926757812000,48.2127914428710940,670.7252197265625000,4.2742371559143070,53.9274711608886700,52,98,88,78,79,14928,2147757604,2147426688,2148011273,2147875190,2147641645,2147055817,2148253677,2147199131,31,4,13,31092
1368888968,5806,937.9099731445312000,48.5409698486328100,671.0153198242188000,4.2646541595458980,53.8827705383300800,52,97,87,80,79,14927,2147757686,2147423222,2148011236,2147875922,2147640246,2147055588,2148257764,2147197814,727,4,13,38543
1368892568,5807,973.7700195312500000,49.7906494140625000,672.8557739257812000,4.2038140296936035,53.7344284057617200,53,99,86,77,79,14922,2147755574,2147422308,2148009014,2147874733,2147639552,2147055277,2148258870,2147198802,3227,4,13,42994
1368896168,5808,978.1900024414062000,48.4794311523437500,671.3864135742188000,4.2523899078369140,53.9008293151855500,53,100,88,78,80,14928,2147749842,2147427053,2148009947,2147876242,2147644626,2147054345,2148257828,2147194038,3256,4,13,64547
1368899768,5809,975.4799804687500000,49.2838287353515600,671.4882202148438000,4.2490229606628420,53.7895889282226560,52,100,86,79,80,14927,2147754523,2147421366,2148007652,2147875584,2147640128,2147054272,2148262308,2147198957,266,4,13,52424
1368903368,5810,975.0800170898438000,49.4870681762695300,672.7130737304688000,4.2085337638854980,53.7748908996582000,52,97,88,77,80,14925,2147753901,2147425417,2148007094,2147874532,2147638509,2147055104,2148259556,2147200594,80,4,13,29788
1368906968,5807,982.2000122070312000,49.7689590454101560,672.4127197265625000,4.2184619903564450,53.7309684753418000,52,99,87,79,80,14927,2147756763,2147425755,2148009938,2147876288,2147641344,2147060882,2148257737,2147197961,153,4,13,57227
1368910568,5813,984.2999877929688000,49.2924194335937500,671.1682128906250000,4.2596001625061035,53.7849006652832000,52,96,85,78,78,14924,2147754203,2147426989,2148009444,2147875328,2147639643,2147059766,2148256987,2147197339,103,4,13,57074
1368914168,5810,973.9699707031250000,48.7708816528320300,671.6754760742188000,4.2428340911865230,53.8608016967773440,52,99,89,79,80,14926,2147756562,2147428224,2148008676,2147871442,2147640009,2147056009,2148260964,2147200082,596,4,13,18313
1368917768,5809,977.0599975585938000,49.3456993103027340,672.9099121093750000,4.2020258903503420,53.7943496704101560,52,99,88,78,80,14927,2147755017,2147424475,2148011940,2147871067,2147641024,2147060873,2148256237,2147200457,3493,4,13,25326
1368921368,5807,982.8499755859375000,49.1126098632812500,672.1563110351562000,4.2269401550292970,53.8167495727539060,53,98,83,78,80,14924,2147756452,2147424722,2148008036,2147874688,2147641581,2147057298,2148262902,2147197686,105,4,13,48486
1368924968,5810,984.9099731445312000,49.3254585266113300,671.6502075195312000,4.2436699867248535,53.7849082946777340,52,96,84,77,79,14925,2147757686,2147422619,2148010048,2147875245,2147637970,2147055058,2148261046,2147197558,32,4,13,2776
1368928568,5808,979.0800170898438000,49.5826110839843750,672.9417724609375000,4.2009677886962890,53.7635688781738300,52,98,86,78,79,14926,2147754998,2147427712,2148010587,2147875840,2147641572,2147057097,2148262336,2147197284,3375,4,13,55838
1368932168,5808,976.5100097656250000,49.2999610900878900,672.4052124023438000,4.2187142372131350,53.7935409545898440,53,101,86,79,79,14923,2147756507,2147426185,2148010788,2147877275,2147640393,2147057024,2148264411,2147201353,3570,4,13,7853
1368935768,5809,982.9299926757812000,49.6719894409179700,672.8673706054688000,4.2034277915954590,53.7503395080566400,52,97,88,78,80,14922,2147752155,2147426358,2148011401,2147874752,2147642596,2147055680,2148255460,2147195410,3593,4,13,30441
1368939368,5808,974.8699951171875000,49.3911399841308600,673.4785766601562000,4.1832180023193360,53.7980995178222660,52,101,85,78,81,14915,2147754468,2147424685,2148008768,2147874048,2147640329,2147058276,2148262098,2147197074,281,4,13,10116
1368942968,5810,983.3200073242188000,49.6181793212890600,673.3872070312500000,4.1862387657165530,53.7675590515136700,53,101,85,79,81,14920,2147756864,2147423241,2148008448,2147873792,2147641133,2147053997,2148259593,2147198756,181,4,13,28333
1368946568,5808,979.5300292968750000,49.3969001770019500,673.3699951171875000,4.1868100166320800,53.7943382263183600,51,103,86,78,80,14912,2147755510,2147426093,2148010934,2147875062,2147637366,2147057161,2148257709,2147196946,250,4,13,61737
1368950168,5809,980.3699951171875000,49.3478202819824200,672.8845214843750000,4.2028660774230960,53.7999114990234400,53,100,85,80,80,14918,2147755291,2147424896,2148012598,2147875355,2147642422,2147055881,2148260644,2147201206,173,4,13,16823
1368953768,5807,980.9899902343750000,49.1110801696777340,672.3065795898438000,4.2219729423522950,53.8250694274902340,53,97,89,79,79,14918,2147757019,2147424932,2148009984,2147875154,2147639716,2147055323,2148256594,2147197357,138,4,13,45348
1368957368,5809,985.0999755859375000,49.0401611328125000,672.4221801757812000,4.2181491851806640,53.8333206176757800,52,98,82,79,79,14918,2147754358,2147424777,2148011465,2147876717,2147639689,2147055332,2148257280,2147198811,490,4,13,7475
1368960968,5811,978.0999755859375000,49.2771606445312500,673.2861938476562000,4.1895809173583980,53.8087081909179700,52,98,84,80,79,14915,2147755300,2147422793,2148010678,2147874386,2147641014,2147057362,2148264649,2147197458,83,4,13,36684
1368964568,5808,976.5800170898438000,49.1397590637207000,673.8842163085938000,4.1698040962219240,53.8378105163574200,53,98,82,79,79,14914,2147753828,2147424283,2148012809,2147871972,2147641051,2147054957,2148264649,2147201042,2525,4,13,13449
1368968168,5806,978.6099853515625000,48.6800117492675800,674.1793212890625000,4.1600399017333980,53.9047203063964840,52,97,90,79,81,14915,2147757842,2147424402,2148014308,2147872713,2147639561,2147056804,2148255076,2147196306,153,4,13,48186
1368971768,5811,982.8800048828125000,48.9085006713867200,674.4824218750000000,4.1500129699707030,53.8761711120605500,52,103,85,78,79,14915,2147755766,2147423067,2148012589,2147875620,2147640777,2147054226,2148258194,2147193700,81,4,13,15444
1368975368,5808,983.1199951171875000,49.0277099609375000,674.1646728515625000,4.1605238914489750,53.8597412109375000,52,97,87,79,80,14914,2147757074,2147426358,2148011565,2147873371,2147642038,2147059922,2148258724,2147196973,158,4,13,61254
1368978968,5808,983.1900024414062000,49.5004882812500000,673.8659057617188000,4.1704058647155760,53.7839698791503900,52,98,82,79,80,14912,2147756955,2147423195,2148007396,2147873920,2147643126,2147056320,2148257545,2147198665,6,4,13,39486
1368982568,5810,976.7299804687500000,49.3630409240722660,674.1461181640625000,4.1611399650573730,53.8132514953613300,53,98,85,78,80,14909,2147758006,2147422537,2148010980,2147875529,2147643574,2147053110,2148258825,2147194724,305,4,13,23471
1368986168,5808,980.7600097656250000,49.3110618591308600,674.2963867187500000,4.1561641693115230,53.8192710876464840,52,100,85,79,80,14911,2147756809,2147423186,2148010614,2147873709,2147640585,2147059181,2148263926,2147198656,194,4,13,11895
1368989768,5809,988.9799804687500000,49.4773216247558600,674.2689208984375000,4.1570758819580080,53.7972183227539060,53,98,89,79,79,14911,2147757440,2147422400,2148009197,2147874313,2147641718,2147053403,2148258688,2147197961,3307,4,13,48908
1368993368,5812,990.9299926757812000,49.7988395690918000,673.8336181640625000,4.1714739799499510,53.7488899230957000,53,100,83,79,81,14910,2147754761,2147425188,2148010733,2147876123,2147643474,2147056640,2148256612,2147199085,2784,4,13,17514
1368994255,5807,994.0599975585938000,49.7002296447753900,673.1010131835938000,4.1957049369812010,53.7493705749511700,53,97,83,78,80,14913,2147755419,2147423122,2148009353,2147875401,2147640384,2147057380,2148255899,2147200502,876,4,13,48114
